When you browse on this site, cookies collect data to enhance your experience and personalize the content and advertising you see.
Visit our Privacy Policy to learn more. By continuing to use the site, you agree to this use of cookies and data.
  • In Slovakia
  • List of Countries
  • For 7 days
  • Water Temperature
  • Satellite Maps
  • Weather Map
  • Weather Widgets
  • user-avatar
    Login

    Hourly Weather Wrzesnia

    Today, 16 February, Saturday

    Time Temperature Precipitation Wind Pressure Humidity
    00:00 +1°C° 0 mm 2 mps 762 mmHg 96%
    01:00 +1°C° 0 mm 2 mps 761 mmHg 96%
    02:00 +1°C° 0 mm 2 mps 761 mmHg 95%
    03:00 +1°C° 0 mm 2 mps 761 mmHg 95%
    04:00 +1°C° 0 mm 2 mps 761 mmHg 95%
    05:00 +1°C° 0 mm 2 mps 761 mmHg 93%
    06:00 +1°C° 0 mm 2 mps 760 mmHg 92%
    07:00 -1°C° 0 mm 2 mps 760 mmHg 90%
    08:00 +2°C° 0 mm 2 mps 760 mmHg 83%
    09:00 +2°C° 0 mm 3 mps 760 mmHg 76%
    10:00 +3°C° 0 mm 3 mps 760 mmHg 69%
    11:00 +4°C° 0 mm 3 mps 759 mmHg 65%
    12:00 +7°C° 0 mm 3 mps 759 mmHg 62%
    13:00 +7°C° 0 mm 4 mps 759 mmHg 57%
    14:00 +7°C° 0 mm 3 mps 758 mmHg 59%
    15:00 +7°C° 0 mm 3 mps 758 mmHg 61%
    16:00 +7°C° 0 mm 3 mps 757 mmHg 62%
    17:00 +5°C° 0 mm 4 mps 757 mmHg 63%
    18:00 +4°C° 0 mm 4 mps 757 mmHg 64%
    19:00 +4°C° 0 mm 4 mps 757 mmHg 65%
    20:00 +4°C° 0 mm 4 mps 756 mmHg 67%
    21:00 +3°C° 0 mm 4 mps 756 mmHg 70%
    22:00 +3°C° 0 mm 4 mps 756 mmHg 73%
    23:00 +3°C° 0 mm 4 mps 756 mmHg 77%

    Tomorrow, 17 February, Sunday

    Time Temperature Precipitation Wind Pressure Humidity
    00:00 +1°C° 0 mm 4 mps 756 mmHg 81%
    01:00 +1°C° 0 mm 4 mps 756 mmHg 84%
    02:00 +1°C° 0 mm 4 mps 756 mmHg 86%
    03:00 0°C° 0 mm 4 mps 756 mmHg 87%
    04:00 +1°C° 0 mm 3 mps 756 mmHg 89%
    05:00 +1°C° 0 mm 3 mps 756 mmHg 90%
    06:00 0°C° 0 mm 4 mps 756 mmHg 90%
    07:00 0°C° 0 mm 4 mps 756 mmHg 91%
    08:00 +1°C° 0 mm 4 mps 756 mmHg 88%
    09:00 +3°C° 0 mm 4 mps 756 mmHg 86%
    10:00 +3°C° 0 mm 5 mps 757 mmHg 83%
    11:00 +5°C° 0 mm 4 mps 757 mmHg 83%
    12:00 +5°C° 0 mm 4 mps 757 mmHg 84%
    13:00 +5°C° 0 mm 4 mps 757 mmHg 85%
    14:00 +5°C° 0 mm 4 mps 757 mmHg 86%
    15:00 +5°C° 0 mm 3 mps 757 mmHg 88%
    16:00 +4°C° 0 mm 3 mps 757 mmHg 89%
    17:00 +5°C° 0 mm 2 mps 757 mmHg 90%
    18:00 +5°C° 0 mm 2 mps 757 mmHg 91%
    19:00 +4°C° 0 mm 2 mps 757 mmHg 92%
    20:00 +5°C° 0 mm 1 mps 757 mmHg 92%
    21:00 +5°C° 0 mm 1 mps 757 mmHg 92%
    22:00 +5°C° 0 mm 1 mps 757 mmHg 93%
    23:00 +4°C° 0 mm 1 mps 757 mmHg 93%

    Day after tomorrow, 18 February, Monday

    Time Temperature Precipitation Wind Pressure Humidity
    00:00 +4°C° 0 mm 1 mps 757 mmHg 93%
    01:00 +3°C° 0 mm 0 mps 758 mmHg 93%
    02:00 +4°C° 0 mm 1 mps 757 mmHg 93%
    03:00 +3°C° 0 mm 1 mps 757 mmHg 93%
    04:00 +3°C° 0 mm 1 mps 757 mmHg 93%
    05:00 +3°C° 0 mm 1 mps 757 mmHg 93%
    06:00 +3°C° 0 mm 1 mps 757 mmHg 93%
    07:00 +2°C° 0 mm 2 mps 757 mmHg 93%
    08:00 +3°C° 0 mm 2 mps 757 mmHg 90%
    09:00 +3°C° 0 mm 3 mps 757 mmHg 87%
    10:00 +4°C° 0 mm 3 mps 757 mmHg 84%
    11:00 +5°C° 0 mm 3 mps 757 mmHg 80%
    12:00 +7°C° 0 mm 3 mps 756 mmHg 77%
    13:00 +7°C° 0 mm 4 mps 756 mmHg 74%
    14:00 +8°C° 0 mm 3 mps 756 mmHg 76%
    15:00 +8°C° 0 mm 3 mps 755 mmHg 77%
    16:00 +8°C° 0 mm 3 mps 755 mmHg 78%
    17:00 +7°C° 0 mm 3 mps 755 mmHg 81%
    18:00 +5°C° 0 mm 3 mps 755 mmHg 84%
    19:00 +4°C° 0 mm 3 mps 755 mmHg 88%
    20:00 +3°C° 0 mm 3 mps 754 mmHg 87%
    21:00 +3°C° 0 mm 3 mps 754 mmHg 86%
    22:00 +2°C° 0 mm 3 mps 754 mmHg 85%
    23:00 +2°C° 0 mm 3 mps 754 mmHg 85%

    19 February, Tuesday

    Time Temperature Precipitation Wind Pressure Humidity
    00:00 +2°C° 0 mm 3 mps 754 mmHg 84%
    01:00 +1°C° 0 mm 3 mps 753 mmHg 83%
    02:00 +1°C° 0 mm 3 mps 753 mmHg 84%
    03:00 +1°C° 0 mm 3 mps 753 mmHg 85%
    04:00 0°C° 0 mm 3 mps 752 mmHg 86%
    05:00 0°C° 0 mm 3 mps 752 mmHg 87%
    06:00 0°C° 0 mm 3 mps 752 mmHg 87%
    07:00 0°C° 0 mm 3 mps 751 mmHg 88%
    08:00 0°C° 0 mm 4 mps 751 mmHg 81%
    09:00 +3°C° 0 mm 4 mps 751 mmHg 74%
    10:00 +3°C° 0 mm 5 mps 751 mmHg 67%
    11:00 +5°C° 0 mm 5 mps 751 mmHg 64%
    12:00 +7°C° 0 mm 5 mps 750 mmHg 62%
    13:00 +8°C° 0 mm 5 mps 750 mmHg 59%
    14:00 +8°C° 0 mm 5 mps 749 mmHg 59%
    15:00 +7°C° 0 mm 5 mps 749 mmHg 60%
    16:00 +7°C° 0 mm 4 mps 749 mmHg 60%
    17:00 +7°C° 0 mm 5 mps 749 mmHg 63%
    18:00 +6°C° 0 mm 5 mps 749 mmHg 66%
    19:00 +6°C° 0 mm 5 mps 749 mmHg 69%
    20:00 +5°C° 0.2 mm 5 mps 749 mmHg 75%
    21:00 +5°C° 0.2 mm 5 mps 749 mmHg 80%
    22:00 +3°C° 0.2 mm 5 mps 749 mmHg 86%
    23:00 +3°C° 0 mm 5 mps 750 mmHg 88%

    20 February, Wednesday

    Time Temperature Precipitation Wind Pressure Humidity
    00:00 +3°C° 0 mm 5 mps 750 mmHg 89%
    01:00 +2°C° 0 mm 5 mps 750 mmHg 91%
    02:00 +2°C° 0 mm 6 mps 750 mmHg 90%
    03:00 +2°C° 0 mm 6 mps 750 mmHg 89%
    04:00 +1°C° 0 mm 6 mps 750 mmHg 88%
    05:00 +1°C° 0 mm 6 mps 751 mmHg 86%
    06:00 +1°C° 0 mm 6 mps 751 mmHg 85%
    07:00 +1°C° 0 mm 6 mps 751 mmHg 83%
    08:00 +2°C° 0 mm 7 mps 752 mmHg 79%
    09:00 +2°C° 0 mm 7 mps 752 mmHg 74%
    10:00 +2°C° 0 mm 8 mps 753 mmHg 70%
    11:00 +2°C° 0 mm 8 mps 753 mmHg 70%
    12:00 +2°C° 0 mm 8 mps 753 mmHg 69%
    13:00 +2°C° 0 mm 8 mps 753 mmHg 69%
    14:00 +3°C° 0 mm 7 mps 754 mmHg 70%
    15:00 +3°C° 0 mm 6 mps 754 mmHg 71%
    16:00 +3°C° 0 mm 6 mps 754 mmHg 72%
    17:00 +2°C° 0 mm 6 mps 754 mmHg 74%
    18:00 +2°C° 0 mm 5 mps 754 mmHg 76%
    19:00 +2°C° 0 mm 5 mps 755 mmHg 78%
    20:00 +2°C° 0 mm 5 mps 755 mmHg 79%
    21:00 +3°C° 0 mm 4 mps 755 mmHg 80%
    22:00 +3°C° 0 mm 4 mps 755 mmHg 81%
    23:00 +3°C° 0 mm 3 mps 755 mmHg 85%

    21 February, Thursday

    Time Temperature Precipitation Wind Pressure Humidity
    00:00 +2°C° 0 mm 3 mps 755 mmHg 89%
    01:00 +2°C° 0 mm 3 mps 755 mmHg 94%
    02:00 +2°C° 0.2 mm 3 mps 755 mmHg 94%
    03:00 +3°C° 0.2 mm 3 mps 755 mmHg 95%
    04:00 +3°C° 0.2 mm 3 mps 755 mmHg 96%
    05:00 +3°C° 0.5 mm 3 mps 755 mmHg 96%
    06:00 +3°C° 0.5 mm 3 mps 755 mmHg 96%
    07:00 +3°C° 0.5 mm 4 mps 755 mmHg 96%
    08:00 +3°C° 0.5 mm 4 mps 756 mmHg 95%
    09:00 +4°C° 0.5 mm 4 mps 756 mmHg 94%
    10:00 +4°C° 0.5 mm 4 mps 756 mmHg 93%
    11:00 +4°C° 0.1 mm 4 mps 756 mmHg 90%
    12:00 +5°C° 0.1 mm 4 mps 755 mmHg 86%
    13:00 +6°C° 0.1 mm 4 mps 755 mmHg 83%
    14:00 +6°C° 0 mm 4 mps 755 mmHg 83%
    15:00 +7°C° 0 mm 3 mps 755 mmHg 83%
    16:00 +7°C° 0 mm 3 mps 755 mmHg 83%
    17:00 +6°C° 0.2 mm 2 mps 754 mmHg 86%
    18:00 +6°C° 0.2 mm 2 mps 754 mmHg 89%
    19:00 +5°C° 0.2 mm 2 mps 754 mmHg 92%
    20:00 +5°C° 0.1 mm 2 mps 754 mmHg 94%
    21:00 +5°C° 0.1 mm 2 mps 754 mmHg 95%
    22:00 +4°C° 0.1 mm 2 mps 754 mmHg 96%
    23:00 +4°C° 0.1 mm 2 mps 754 mmHg 96%
    Show more